Simultaneous Nadir Overpasses (SNOs) Predictions

Prediction of SNOs between GOES-17 and TERRA Satellite Orbit:

Table of predicted SNOs for the next 14.0 days since TLE Epoch: 5/20/2023
Index Date Time (GOES-17) GOES-17 Lat,Lon TERRA Lat,Lon Distance(km) Time Diff (sec)
1 05/20/2023 17:15:56 -0.00,-104.74 0.59,-107.56 320.37 80
2 05/22/2023 17:02:19 0.01,-104.74 -0.21,-103.62 126.39 80
3 05/23/2023 05:22:40 -0.01,-104.71 -0.85,-108.57 438.89 80
4 05/25/2023 05:03:43 -0.01,-104.71 -0.02,-104.63 8.60 80
5 05/27/2023 04:47:27 0.01,-104.71 0.88,-100.71 454.68 80
6 05/27/2023 17:07:38 -0.01,-104.74 0.19,-105.61 99.99 80
7 05/29/2023 16:54:01 -0.02,-104.74 -0.67,-101.69 347.62 80
8 05/30/2023 05:14:22 0.02,-104.72 -0.38,-106.63 217.14 80
9 06/01/2023 04:55:24 0.02,-104.72 0.45,-102.69 230.65 80
10 06/01/2023 17:15:35 -0.01,-104.74 0.61,-107.59 324.20 80
